Location: Gro�bocka
(50.8204°N, 11.9702°E)
Time: 07:35:43
(UTC+00:00)

Cosmos 1408 - Pass Details

Date: 29 October 2020
Orbit: 470 x 492 km, 82.6° (Epoch: 01 December)

Event Time Altitude Azimuth Distance (km) Brightness Sun altitude
Rises 18:11:27 0° 342° (NNW) 2,559 6.5 -22.6°
Reaches altitude 10° 18:13:41 10° 332° (NNW) 1,678 5.7 -22.9°
Maximum altitude 18:16:59 32° 268° (W) 852 4.4 -23.4°
Drops below altitude 10° 18:20:17 10° 204° (SSW) 1,676 5.5 -23.9°
Sets 18:22:31 0° 194° (SSW) 2,555 6.3 -24.3°
